Location: Mizzole
(45.4833°N, 11.0500°E)
Time: 09:24:50
(UTC+00:00)

CSL-04 Rocket - Pass Details

Date: 21 October 2019
Orbit: 805 x 861 km, 99.0° (Epoch: 19 November)

Event Time Altitude Azimuth Distance (km) Brightness Sun altitude
Rises 17:06:53 0° 148° (SSE) 3,419 6.6 -8.8°
Reaches altitude 10° 17:09:18 10° 143° (SE) 2,483 5.8 -9.2°
Maximum altitude 17:14:38 51° 69° (ENE) 1,058 3.9 -10.1°
Drops below altitude 10° 17:19:55 10° 355° (N) 2,470 6.2 -11.1°
Sets 17:22:19 0° 350° (N) 3,400 6.9 -11.5°
